FW8889 Weather Reports


Display with metric or nautical units.
time (UTC)temp
F
wind
direction
speed
MPH
gust
MPH
rain 1hr
in
rain 24hr
in
rain mn
in
humidity
%
barometer
mb
20260507033056 59 70 0.0 3.0 0.00 0.21 0.21 86 1006.5
20260507031604 59 242 2.0 8.0 0.00 0.21 0.21 86 1006.2
20260507030054 59 137 0.0 3.0 0.00 0.21 0.21 86 1006.1
20260507024552 59 204 0.0 4.0 0.00 0.21 0.21 86 1006.1
20260507023059 59 0 1.0 5.0 0.00 0.21 0.21 86 1006.2
20260507021550 59 0 0.0 4.0 0.00 0.21 0.21 86 1006.1
20260507020055 59 160 1.0 5.0 0.00 0.21 0.21 86 1006.2
20260507014551 59 281 1.0 6.0 0.00 0.21 0.21 86 1006.5
20260507013046 59 0 1.0 5.0 0.00 0.21 0.21 86 1006.5
20260507011549 59 132 0.0 4.0 0.00 0.21 0.21 86 1006.5
20260507010050 59 0 1.0 4.0 0.01 0.21 0.21 86 1006.5
20260507004551 59 158 1.0 3.0 0.01 0.21 0.21 86 1006.5
20260507003052 59 261 1.0 6.0 0.02 0.21 0.21 86 1006.6
20260507001555 59 0 1.0 5.0 0.07 0.21 0.21 86 1006.4
20260507000044 59 40 0.0 4.0 0.06 0.20 0.20 86 1006.2
20260506234549 59 263 0.0 4.0 0.06 0.20 0.20 86 1006.3
20260506233102 60 0 1.0 4.0 0.06 0.19 0.19 86 1006.2
20260506231546 60 246 1.0 5.0 0.01 0.14 0.14 86 1006.4
20260506230051 60 309 1.0 5.0 0.01 0.14 0.14 86 1006.6
20260506224548 60 163 2.0 5.0 0.01 0.14 0.14 86 1006.6
20260506223049 60 311 1.0 7.0 0.01 0.13 0.13 86 1006.6
20260506221548 60 136 1.0 6.0 0.02 0.13 0.13 86 1006.6
20260506220051 60 306 1.0 5.0 0.03 0.13 0.13 86 1006.6
20260506214552 60 155 1.0 7.0 0.04 0.13 0.13 86 1006.8
20260506213107 60 294 0.0 4.0 0.05 0.12 0.12 86 1007.2
20260506211549 61 52 1.0 5.0 0.06 0.11 0.11 86 1007.2
20260506210056 61 311 0.0 4.0 0.07 0.10 0.10 86 1007.3
20260506204549 62 274 1.0 4.0 0.07 0.09 0.09 85 1007.5
20260506203050 62 175 0.0 5.0 0.06 0.07 0.07 84 1007.4
20260506201550 63 320 1.0 2.0 0.05 0.05 0.05 83 1007.2
20260506200048 64 149 1.0 6.0 0.03 0.03 0.03 81 1007.2
20260506194555 65 355 0.0 5.0 0.02 0.02 0.02 80 1007.3
20260506193047 66 326 1.0 6.0 0.01 0.01 0.01 76 1007.4
20260506191545 67 291 2.0 8.0 0.00 0.00 0.00 71 1007.4
20260506190057 69 0 2.0 5.0 0.00 0.00 0.00 66 1007.5
20260506184549 70 44 2.0 11.0 0.00 0.00 0.00 61 1007.4
20260506183050 71 281 2.0 5.0 0.00 0.00 0.00 60 1007.4
20260506181549 72 287 2.0 12.0 0.00 0.00 0.00 58 1007.3
20260506180058 72 217 3.0 8.0 0.00 0.00 0.00 57 1007.6
20260506174554 72 166 3.0 10.0 0.00 0.00 0.00 57 1007.7
20260506173043 72 167 3.0 10.0 0.00 0.00 0.00 58 1007.7
20260506171556 72 197 3.0 10.0 0.00 0.00 0.00 58 1008.0
20260506170103 72 140 2.0 9.0 0.00 0.00 0.00 58 1008.1
20260506164606 72 123 2.0 8.0 0.00 0.00 0.00 57 1008.1
20260506163111 72 158 2.0 16.0 0.00 0.00 0.00 56 1008.1
20260506161601 72 9 1.0 10.0 0.00 0.00 0.00 58 1008.7
20260506160051 72 337 2.0 8.0 0.00 0.00 0.00 59 1008.8
20260506154608 71 153 2.0 8.0 0.00 0.00 0.00 60 1009.2
20260506153059 71 167 2.0 10.0 0.00 0.00 0.00 62 1009.3
20260506151557 70 267 1.0 8.0 0.00 0.00 0.00 64 1009.7
20260506150047 70 250 2.0 9.0 0.00 0.00 0.00 63 1009.9
20260506144549 70 150 1.0 8.0 0.00 0.00 0.00 65 1009.7
20260506143103 69 211 2.0 9.0 0.00 0.00 0.00 67 1009.6
20260506141553 68 227 2.0 9.0 0.00 0.00 0.00 70 1009.6
20260506140058 67 160 2.0 7.0 0.00 0.00 0.00 69 1009.8
20260506134553 67 240 1.0 9.0 0.00 0.01 0.00 70 1010.0
20260506133055 66 137 2.0 7.0 0.00 0.01 0.00 71 1010.3
20260506131551 66 232 0.0 11.0 0.00 0.01 0.00 73 1010.1
20260506130051 66 98 1.0 6.0 0.00 0.01 0.00 72 1010.2
20260506124549 65 222 2.0 7.0 0.00 0.01 0.00 74 1010.1
20260506123049 64 229 1.0 6.0 0.00 0.01 0.00 74 1010.4
20260506121551 63 292 1.0 7.0 0.00 0.01 0.00 76 1010.0
20260506120057 63 26 2.0 6.0 0.00 0.01 0.00 75 1010.5
20260506114558 63 133 1.0 5.0 0.00 0.01 0.00 76 1010.4
20260506113053 62 0 1.0 7.0 0.00 0.01 0.00 77 1010.8
20260506111548 62 287 1.0 3.0 0.00 0.01 0.00 78 1010.6
20260506110055 61 247 1.0 5.0 0.00 0.01 0.00 78 1010.7
20260506104550 61 182 1.0 3.0 0.00 0.01 0.00 78 1010.6
20260506103049 61 310 1.0 5.0 0.00 0.01 0.00 77 1010.7
20260506101551 61 0 1.0 3.0 0.00 0.01 0.00 77 1010.6
20260506100048 61 254 1.0 4.0 0.00 0.01 0.00 77 1010.6
20260506094604 61 294 0.0 5.0 0.00 0.01 0.00 76 1010.3
20260506093049 62 233 1.0 7.0 0.00 0.01 0.00 75 1010.6
20260506091549 62 69 1.0 7.0 0.00 0.01 0.00 75 1010.6
20260506090047 62 0 0.0 5.0 0.00 0.01 0.00 74 1010.6
20260506084547 62 192 1.0 5.0 0.00 0.01 0.00 73 1010.6
20260506083045 63 163 1.0 5.0 0.00 0.01 0.00 73 1010.6
20260506081547 63 0 1.0 5.0 0.00 0.01 0.00 72 1010.5
20260506073048 64 0 1.0 4.0 0.00 0.01 0.00 70 1010.2
20260506071553 64 0 1.0 5.0 0.00 0.01 0.00 69 1010.1
20260506061552 65 338 1.0 4.0 0.00 0.01 0.00 65 1009.7
20260506044555 65 0 1.0 5.0 0.00 0.01 0.00 63 1010.2
20260506043049 65 260 0.0 5.0 0.00 0.01 0.00 63 1010.2
20260506041550 65 236 1.0 5.0 0.00 0.01 0.00 62 1010.3
20260506040100 65 242 1.0 4.0 0.00 0.01 0.00 61 1010.3
20260506034604 65 0 2.0 9.0 0.00 0.01 0.01 60 1010.4